Theta_e
322 321 318 316 317 320 321 320 320 319 319 318 317 317 318 319 319 319 318 316 315 313 312 313 312 310 309 308 309 309 310 310 311 311 311 311 311 309 307 307 307 307 306 307 308 308 308 308 307 306 305 306 307 308 308 308 308 308 307 307 307 306 306 306 306 306 306 306 305 304 303 300 299 300 300 302 304 304 305 305 305 306 306 307 307
323 321 320 318 317 320 321 320 320 319 319 318 318 318 319 320 319 319 319 318 317 316 314 314 314 313 311 310 310 309 309 310 311 312 311 312 312 312 311 310 310 310 309 308 308 308 309 308 308 308 307 305 304 306 307 307 308 307 307 306 306 305 305 305 305 305 305 305 304 302 299 297 297 298 299 300 301 302 303 303 304 304 305 305 306
322 321 319 318 318 320 321 320 320 319 319 319 318 317 319 320 320 320 320 319 318 318 316 316 315 315 315 314 314 313 312 311 312 312 312 311 312 312 312 311 310 311 312 310 309 308 308 308 307 308 308 307 305 304 306 307 307 307 307 306 305 304 303 303 303 303 303 302 301 298 296 295 296 296 296 297 297 298 298 299 300 301 302 303 303
322 320 319 318 320 321 320 320 320 320 319 319 319 318 319 320 320 319 319 318 318 317 317 317 317 317 317 317 318 317 316 314 313 313 313 312 312 312 312 312 311 311 311 312 311 310 309 308 307 307 307 307 306 305 305 307 307 307 307 305 301 300 300 299 299 299 298 297 297 296 295 295 295 296 296 296 296 296 296 296 297 297 298 299 300
321 321 320 321 321 321 321 320 320 320 320 320 320 319 319 319 320 320 319 319 318 317 316 317 317 318 318 318 319 318 318 317 316 315 314 314 313 313 312 313 312 312 311 312 312 312 311 310 309 308 307 307 307 306 305 305 306 306 306 303 299 297 296 296 295 295 294 294 295 295 295 295 295 296 296 296 296 296 296 296 297 297 297 297 297
321 321 321 321 321 321 321 320 320 321 320 320 319 318 319 319 320 320 319 320 319 318 318 317 317 317 319 319 319 319 319 318 317 317 316 316 315 314 314 314 313 313 312 312 312 312 312 311 310 309 309 308 307 307 306 305 305 305 304 301 298 296 295 294 293 293 294 294 295 295 295 295 295 295 296 296 296 297 297 297 297 297 297 297 297
320 320 321 321 321 321 321 320 320 321 321 321 320 319 319 320 320 320 319 319 319 319 319 318 316 317 318 319 319 319 319 319 318 318 318 317 317 316 316 315 314 314 313 313 313 312 311 311 311 310 310 309 308 307 307 306 305 304 303 301 299 298 296 294 293 294 295 295 295 295 295 295 295 295 295 296 296 297 297 297 297 297 296 296 296
320 320 320 321 321 321 320 320 320 320 321 321 321 320 319 320 320 320 320 319 320 320 319 319 318 317 318 319 319 319 319 319 319 319 319 318 318 318 317 317 316 315 314 314 313 313 312 311 311 310 310 310 309 307 307 306 305 304 303 301 299 298 296 295 295 295 296 296 296 296 296 295 295 295 295 295 296 297 297 297 297 297 296 296 296
320 320 320 320 320 320 319 319 320 320 320 320 320 320 320 320 319 320 320 320 320 319 319 319 318 317 318 320 320 320 320 319 319 318 318 318 318 318 318 318 317 316 315 314 314 314 312 312 311 311 310 310 309 308 307 306 305 304 303 301 300 298 297 296 296 296 297 297 297 297 296 296 296 295 295 296 296 297 297 297 297 297 296 296 295
320 320 320 319 319 319 318 318 319 319 320 319 319 319 318 318 319 319 319 319 319 318 317 317 318 318 319 320 320 320 319 319 319 318 317 317 317 318 318 318 318 317 316 315 315 314 313 312 312 311 310 310 309 308 307 306 304 303 303 302 300 299 298 298 298 297 297 297 297 297 296 296 296 296 296 296 296 296 296 296 296 296 296 296 296
321 321 320 320 320 319 319 319 319 320 320 320 320 319 319 320 320 320 321 320 320 319 318 319 320 320 320 320 320 320 320 320 320 320 319 319 318 318 318 318 317 317 316 315 315 315 314 313 312 311 310 309 308 307 306 305 304 303 303 302 301 299 299 299 299 298 298 298 297 297 296 296 296 296 296 296 296 296 296 296 296 296 295 295 295
317 317 317 318 319 318 318 319 320 321 321 320 319 318 318 319 318 318 318 318 318 318 318 319 319 319 319 319 319 320 320 320 320 320 320 319 319 319 318 318 318 317 317 317 316 316 315 314 312 311 310 308 308 306 305 305 304 304 304 302 300 299 299 300 300 299 298 298 297 297 296 296 296 296 296 296 296 296 295 295 295 295 294 294 294
310 311 311 312 313 312 312 313 315 316 316 315 314 313 313 314 313 312 312 312 312 313 315 316 316 317 318 318 319 320 320 320 320 320 320 320 319 319 319 318 318 318 318 317 317 317 316 313 311 310 309 308 307 306 305 305 304 304 303 302 300 300 300 300 300 300 298 298 297 297 296 296 296 296 296 296 295 295 295 295 294 294 293 293 293
308 308 307 307 308 307 307 308 309 310 310 309 309 310 310 310 309 308 308 308 308 309 310 312 313 314 315 315 316 319 319 320 319 319 319 319 319 318 318 318 318 318 318 318 317 317 315 313 311 309 308 306 306 307 306 305 304 304 303 302 301 300 300 300 300 300 299 298 297 297 297 296 296 296 296 295 295 294 294 294 293 293 292 292 292
307 307 307 307 307 306 306 306 307 307 307 308 308 308 307 307 307 307 307 307 307 307 307 308 309 311 312 313 314 315 317 318 318 317 316 316 316 316 317 317 317 317 317 318 317 316 314 312 310 309 308 307 307 307 306 305 304 304 302 301 300 300 300 300 300 300 299 297 297 297 297 296 296 296 295 295 294 293 293 292 292 292 291 291 291
306 307 307 307 307 307 306 306 307 307 307 307 307 306 306 306 306 306 306 306 305 305 306 307 307 307 309 311 312 313 314 316 316 316 315 314 314 315 315 315 315 315 316 315 315 313 312 310 309 308 307 306 306 306 305 304 303 302 301 301 300 300 300 300 299 299 298 297 297 297 296 296 295 294 294 293 292 292 291 291 291 291 291 290 290
306 306 306 307 306 307 307 306 307 307 307 307 307 306 306 306 306 306 305 305 304 304 304 305 305 306 307 308 310 311 313 315 316 316 315 315 314 314 314 314 314 313 312 311 310 309 308 308 307 307 306 306 305 304 303 303 302 301 301 301 300 300 300 299 298 297 297 296 296 295 295 294 293 293 292 292 292 292 291 291 291 291 290 290 290
305 305 305 306 306 306 306 306 306 307 307 307 307 307 307 306 305 305 304 304 304 304 303 303 303 303 304 305 307 309 312 315 316 316 315 314 314 313 313 313 312 312 310 308 307 307 307 306 306 306 306 305 304 303 302 301 301 301 300 300 300 299 298 297 297 296 295 294 294 293 293 293 292 292 292 292 292 292 292 292 292 291 290 290 290
306 305 305 305 305 305 305 305 306 306 307 307 307 307 307 306 306 306 306 306 306 305 304 303 303 303 303 303 305 307 310 314 316 316 315 314 313 313 313 312 310 309 308 307 306 305 305 305 304 304 304 303 302 301 301 300 300 300 299 299 298 298 297 296 295 295 294 294 293 293 293 292 292 292 292 292 292 292 292 292 292 292 291 290 290
306 305 305 305 305 305 305 305 305 306 306 307 307 307 307 306 306 306 306 306 306 306 306 305 305 305 304 304 305 308 310 313 315 314 313 312 312 312 312 310 309 307 306 305 304 303 303 302 302 301 302 301 301 301 300 300 299 298 298 297 296 296 295 294 294 293 293 293 292 292 292 292 292 292 292 292 292 292 292 292 292 292 291 291 291
305 304 305 304 304 304 304 305 305 305 305 305 305 305 305 305 305 306 307 307 307 307 307 306 306 305 305 305 308 309 310 312 313 312 311 310 310 310 310 309 308 306 304 304 303 302 302 301 300 299 299 299 299 298 297 297 296 296 296 295 294 294 293 293 293 292 292 292 292 292 291 291 291 291 291 291 291 291 291 291 291 292 291 291 291
303 303 304 304 304 304 304 304 305 305 305 305 305 305 305 305 305 306 307 308 308 308 307 307 306 306 306 307 308 309 310 311 310 309 309 308 307 308 308 307 306 305 304 302 301 300 299 299 298 297 296 296 296 296 296 295 295 295 294 294 293 293 293 292 292 292 292 291 291 291 291 290 290 290 290 290 290 290 290 291 291 291 291 290 290
302 302 302 303 303 304 304 305 305 305 305 305 304 305 304 304 304 304 306 308 308 307 307 307 306 306 306 308 309 309 310 309 307 306 306 305 305 305 305 305 304 304 303 301 299 298 297 297 296 296 296 296 295 295 295 294 294 293 293 293 293 293 292 292 292 291 291 291 290 290 290 290 289 289 290 290 290 290 290 290 290 290 290 290 290
301 302 302 303 303 304 304 305 305 304 305 305 304 304 304 304 303 303 304 306 307 307 307 306 306 306 307 308 308 308 307 306 305 304 303 304 304 303 304 303 302 302 301 300 298 297 296 295 295 295 295 295 295 294 294 293 293 293 293 293 292 292 292 291 291 290 290 290 290 289 289 290 290 290 290 290 290 290 290 290 290 290 290 289 290
301 301 302 302 303 303 304 304 304 304 304 304 304 304 304 303 303 303 303 304 306 307 306 306 306 307 307 307 307 306 304 303 302 301 301 301 301 300 301 300 299 299 299 297 295 295 295 295 295 295 294 294 294 293 293 293 293 292 292 292 291 291 290 290 290 290 290 289 289 289 289 289 289 289 289 289 289 289 289 289 289 289 289 289 289
300 301 301 302 302 303 303 304 304 304 304 304 304 303 304 303 303 303 303 304 305 306 306 306 306 306 306 307 306 303 301 300 299 299 298 298 298 297 297 296 296 296 296 295 295 295 295 294 294 294 293 293 293 292 292 292 292 291 291 291 290 290 290 290 290 289 289 289 288 288 288 288 287 287 287 287 287 288 288 288 288 288 288 288 288
300 300 300 301 301 302 302 303 303 303 303 303 303 303 303 303 303 304 304 304 304 305 306 305 305 306 306 305 304 301 299 298 298 297 297 297 296 295 295 295 295 295 295 295 295 295 294 294 293 293 292 292 292 292 291 291 291 290 290 290 290 289 289 289 289 289 288 288 287 287 287 287 287 287 287 287 287 287 287 287 287 288 288 288 288
300 300 300 301 301 301 302 302 302 302 303 303 303 303 303 303 304 304 304 304 304 304 304 304 305 305 305 305 302 299 297 296 297 297 297 296 295 295 295 295 295 295 295 295 294 293 293 292 292 292 292 291 291 291 290 290 290 290 289 289 289 289 289 288 288 288 288 287 287 287 287 287 286 286 286 286 286 286 286 286 287 287 287 287 288
300 300 300 300 301 301 301 301 301 302 302 303 303 303 303 303 304 304 304 304 303 303 304 305 304 304 304 305 303 299 297 297 297 296 296 295 295 295 295 295 295 295 294 293 292 292 292 292 292 291 291 291 290 290 289 289 289 289 289 288 288 288 288 288 287 287 287 287 287 287 286 286 285 285 285 285 285 285 285 286 286 286 287 287 287
299 299 300 300 300 301 301 301 301 301 302 302 302 302 303 303 303 303 303 303 303 304 305 305 304 303 304 305 304 302 301 300 296 295 294 294 294 295 295 295 294 293 292 292 292 292 292 292 291 291 290 290 290 289 289 289 289 288 288 288 288 288 288 287 287 287 287 286 286 285 285 285 285 285 285 285 285 285 285 286 286 286 287 287 287
298 298 299 299 300 300 300 300 300 301 301 301 301 302 303 303 303 304 304 304 305 306 306 305 305 305 305 305 303 303 302 299 295 293 293 294 295 295 294 292 292 292 292 292 292 292 292 291 291 290 290 290 289 289 289 288 288 288 288 288 288 288 287 287 287 287 286 286 285 285 285 285 285 285 285 285 285 286 286 286 286 287 287 287 287
297 297 298 298 299 299 300 300 300 300 300 301 301 302 302 303 303 304 305 306 307 307 306 306 306 306 305 305 304 302 300 296 294 293 294 295 295 293 292 291 292 292 292 292 292 292 291 291 290 290 290 289 289 289 288 288 288 288 288 287 287 287 286 286 286 286 286 286 285 285 286 286 286 286 286 286 286 286 286 286 287 287 287 287 287
295 296 297 297 298 298 299 299 299 299 300 300 301 302 302 302 302 303 304 305 306 307 306 306 306 306 305 304 304 303 299 295 293 294 295 294 293 292 291 292 292 292 292 292 292 291 291 291 290 290 289 289 289 288 288 288 288 287 287 286 286 286 286 286 286 286 286 286 286 286 286 286 286 286 286 286 286 286 286 287 287 287 287 287 287
294 295 295 296 296 297 297 298 298 299 300 300 301 301 302 302 302 303 303 304 305 306 306 306 305 305 304 303 302 300 297 294 294 295 294 292 291 291 292 292 292 292 292 292 291 291 291 290 290 290 289 289 288 288 288 288 287 287 286 286 287 286 286 286 286 286 287 287 287 287 287 286 287 286 286 286 286 286 287 287 287 287 287 287 287
293 293 294 295 295 296 296 296 297 297 298 300 301 301 302 302 302 303 303 303 304 303 303 303 303 302 302 301 299 296 295 294 294 293 292 291 292 292 292 292 292 292 292 292 291 291 290 290 290 289 289 288 288 288 288 287 286 287 287 287 287 287 286 286 286 287 287 287 287 287 287 287 287 287 286 286 286 286 287 287 287 287 287 287 287
293 293 293 294 295 295 295 296 296 296 297 298 300 300 301 301 301 302 302 302 302 301 299 299 298 298 298 297 296 295 294 293 292 291 291 292 292 292 292 292 292 292 292 291 291 291 290 290 289 289 288 288 288 287 287 287 287 287 287 287 287 286 285 285 286 287 287 286 286 287 287 287 287 286 286 287 286 286 287 287 287 287 287 287 287
294 293 293 293 294 294 295 295 295 295 296 298 299 298 298 299 299 300 299 299 299 298 297 295 295 294 294 294 293 293 292 291 291 291 292 292 292 292 292 292 292 292 292 291 291 291 290 290 289 289 288 288 287 287 287 287 288 288 287 287 286 285 284 285 287 287 287 286 286 287 286 287 287 287 287 287 286 286 287 287 287 287 287 287 287
295 295 295 294 294 294 294 295 295 295 296 297 298 297 297 296 296 297 297 296 295 294 293 293 293 292 291 291 291 291 290 290 291 292 292 292 292 292 292 292 292 292 291 291 291 290 290 289 289 289 288 288 287 287 288 288 288 288 287 286 284 284 284 286 287 287 287 286 287 287 287 287 287 287 286 286 286 286 286 287 287 287 287 287 287
295 295 295 296 295 295 295 295 296 296 297 297 297 296 296 295 295 295 295 294 293 291 291 291 291 291 291 290 290 290 291 292 292 292 292 292 292 292 292 291 291 291 291 291 290 290 290 289 289 288 288 288 288 288 288 288 288 288 287 285 283 283 284 286 287 287 287 287 287 287 287 287 286 287 287 286 286 287 287 287 287 287 287 287 287
295 295 296 296 296 295 296 296 297 297 297 297 296 295 295 295 294 294 293 292 291 291 290 290 290 290 290 290 290 291 292 292 292 292 293 293 292 292 292 291 291 291 291 291 290 290 289 289 288 288 288 288 288 288 288 288 288 287 286 284 283 283 285 286 287 287 287 287 287 287 287 287 287 287 287 287 287 287 287 287 287 287 287 287 287
294 295 296 296 296 295 296 297 298 297 297 296 295 294 294 294 293 292 291 290 290 290 290 290 290 290 290 291 292 292 293 293 293 293 293 293 293 292 292 291 291 291 291 290 290 290 289 288 288 288 288 288 288 288 288 288 288 286 284 283 283 284 286 288 289 288 288 287 287 287 287 287 287 287 287 287 287 287 287 287 287 287 287 287 287
294 295 296 296 295 295 296 296 296 295 294 294 293 292 292 292 291 291 291 290 290 291 290 291 291 291 291 291 292 292 293 293 293 292 292 292 293 292 292 291 291 291 290 290 290 289 289 288 288 288 288 289 289 288 288 288 287 285 283 283 283 285 287 289 290 289 288 288 287 287 287 287 287 287 287 287 287 287 288 288 288 288 288 288 288
295 295 295 295 295 295 295 294 293 293 292 292 291 291 290 290 291 291 291 291 291 291 291 291 291 291 291 292 292 292 292 293 293 293 293 292 292 292 291 291 291 290 290 289 289 288 288 288 288 288 289 289 288 288 288 287 285 284 283 283 284 286 288 290 290 290 289 288 288 288 288 287 287 287 287 288 288 288 288 288 288 288 288 288 288
294 294 294 293 293 293 293 292 292 291 291 291 290 290 290 290 291 292 292 292 292 292 292 292 291 291 292 292 291 292 292 293 293 293 292 292 292 291 291 290 290 290 289 289 288 288 288 288 288 288 288 289 288 288 287 286 284 283 283 284 285 287 289 290 290 290 289 289 289 289 288 287 287 287 287 288 288 288 288 288 288 288 288 289 289
293 293 293 292 292 292 291 291 291 291 291 291 291 291 291 292 292 292 292 291 291 291 292 291 291 292 292 291 291 292 293 293 292 292 292 291 291 291 290 290 290 289 289 288 288 288 288 288 288 288 289 288 287 286 286 285 284 283 284 284 286 287 289 289 290 290 290 290 289 289 288 288 288 287 287 288 288 288 288 288 289 289 289 289 289
293 293 293 292 292 292 292 292 292 292 292 292 292 292 292 292 292 291 292 292 292 292 292 292 292 292 292 292 292 292 293 292 292 291 291 291 291 290 290 290 289 289 288 288 288 288 288 288 288 289 288 288 286 286 286 285 284 283 284 285 287 288 289 290 290 290 290 290 290 289 288 288 288 288 288 288 288 289 289 289 289 289 289 289 290
293 293 293 293 293 293 293 293 293 293 292 292 292 292 292 292 292 292 293 293 293 293 293 292 292 292 292 292 292 292 292 292 291 291 291 290 290 290 289 289 288 288 288 288 288 288 288 288 288 289 288 287 286 286 286 285 284 284 285 286 288 289 289 290 290 290 290 290 289 289 289 288 288 288 288 288 289 289 289 290 290 290 290 290 290
294 294 294 294 294 294 294 294 294 293 293 293 293 292 292 292 292 292 292 292 292 292 292 292 292 292 292 291 291 291 291 291 290 290 290 289 289 289 288 288 288 288 288 288 288 288 288 288 289 288 287 286 286 286 286 285 284 284 285 286 288 289 290 290 290 290 290 290 289 289 289 289 289 289 289 289 289 289 290 290 290 290 290 291 290
294 294 294 294 293 293 293 293 293 292 292 292 292 291 291 291 291 292 291 291 291 291 291 291 291 291 291 291 290 290 290 290 289 289 289 288 288 288 287 287 288 288 287 288 288 288 288 288 288 287 286 285 286 286 287 286 285 284 285 286 288 289 290 290 290 290 290 290 289 289 289 289 289 289 289 289 289 290 290 290 290 290 290 291 291
293 293 293 292 292 292 292 292 291 291 291 291 290 290 290 290 290 290 290 291 290 290 290 290 290 290 290 290 290 289 289 289 288 288 288 287 287 287 287 287 287 287 287 287 287 288 288 289 288 287 286 285 285 286 286 287 286 285 285 286 287 288 289 290 290 290 290 290 289 289 289 289 289 289 289 289 290 290 290 290 290 290 290 290 290
292 292 291 291 291 291 291 290 290 290 290 290 289 289 289 289 289 289 289 289 289 289 289 289 289 289 289 289 288 288 288 287 287 287 286 286 286 286 286 287 287 287 287 287 287 288 288 288 287 286 286 285 285 285 286 287 286 285 285 285 286 287 289 290 290 290 290 290 289 289 289 289 289 289 289 289 290 290 290 290 290 290 290 290 290
Wind_Speed
25 29 29 27 27 27 28 29 26 22 20 19 19 18 19 19 19 18 18 17 16 16 16 14 13 12 13 13 14 13 12 11 10 9 8 7 7 7 7 7 7 7 7 7 7 6 5 5 5 5 4 3 2 3 5 6 6 7 7 7 9 9 9 8 6 3 4 7 11 13 15 16 16 16 16 15 14 13 12 12 12 12 11 11 11
24 26 28 26 24 23 25 27 25 22 21 20 19 18 20 22 21 21 22 21 19 18 17 16 14 13 12 12 12 13 13 12 11 11 10 9 8 7 7 7 7 6 6 7 6 5 3 3 4 3 3 3 2 2 3 4 4 5 7 7 8 9 10 10 8 5 5 8 10 13 16 16 17 17 17 17 16 15 14 13 13 13 13 12 12
20 22 25 25 21 19 21 24 23 22 22 22 19 18 21 22 22 22 24 23 23 22 20 18 16 14 13 11 11 12 12 13 13 12 11 10 10 9 8 8 8 7 7 7 7 5 4 3 2 2 1 1 2 2 1 2 3 4 6 7 8 9 9 11 11 9 9 9 10 14 17 17 17 17 17 17 16 16 16 15 15 14 14 14 14
17 18 22 21 17 15 17 20 22 22 23 23 20 18 20 21 21 21 22 23 24 23 21 20 19 17 15 13 12 11 12 13 14 14 13 12 11 10 10 9 9 9 8 8 8 7 6 5 4 3 2 1 1 0 1 1 2 3 5 6 7 9 9 10 10 10 11 11 11 13 16 16 16 17 18 17 17 17 18 17 17 17 16 15 16
16 16 17 17 17 17 18 19 21 22 22 21 18 17 18 19 21 21 22 24 24 21 18 17 18 19 17 15 13 13 13 13 15 15 14 14 13 12 11 11 10 10 11 10 10 9 9 7 6 6 5 4 3 3 2 1 2 3 4 6 7 8 9 9 10 10 11 13 13 14 16 18 17 18 19 20 20 20 19 18 18 18 19 18 17
14 15 15 16 17 19 20 19 19 20 21 21 20 20 19 19 21 23 24 24 23 22 19 20 22 24 21 17 15 14 14 14 16 17 16 15 15 15 14 13 12 12 12 13 13 12 12 11 9 8 8 7 6 5 4 3 2 3 3 4 6 8 8 8 9 10 10 12 13 16 19 20 20 20 20 21 21 21 22 23 21 21 23 24 23
12 14 15 16 16 17 18 18 17 17 18 19 20 20 18 19 21 24 24 23 22 22 22 23 26 27 25 21 19 18 17 17 18 19 18 18 18 18 18 17 16 15 15 14 15 15 14 13 13 12 11 10 8 6 5 4 3 3 3 4 5 7 7 7 8 8 10 12 14 17 18 19 20 20 20 21 20 21 24 26 27 27 28 28 28
13 13 13 15 15 15 17 17 16 16 16 16 16 16 17 20 21 21 20 20 20 18 18 21 23 23 22 22 21 20 19 18 18 18 18 18 19 20 21 21 20 19 18 17 17 17 17 16 15 15 14 13 11 8 7 6 5 4 3 3 5 6 5 5 6 6 8 11 14 16 18 19 21 22 23 24 23 23 23 23 25 29 30 30 29
13 14 14 14 14 14 18 19 16 15 16 16 15 16 18 18 19 19 20 20 19 16 17 21 22 21 20 19 18 17 17 17 18 18 18 19 20 20 21 23 24 23 21 20 20 20 19 18 18 17 16 15 13 10 8 7 6 5 4 3 4 5 4 4 4 4 7 10 12 15 17 18 20 22 23 23 22 22 23 22 23 26 29 31 30
9 11 11 11 10 9 13 15 13 13 15 17 17 19 19 19 19 20 20 20 20 19 22 24 22 20 19 18 17 17 17 18 18 18 18 19 18 18 18 21 23 24 24 23 22 22 22 21 20 19 18 16 14 12 10 8 7 6 5 4 4 4 3 2 2 3 6 9 10 12 14 15 16 17 18 19 19 21 23 24 25 26 27 28 28
7 8 9 8 8 8 9 11 12 13 15 16 17 18 19 18 17 17 16 16 18 21 23 23 19 17 16 16 16 16 15 14 13 14 14 15 16 16 16 17 18 21 23 24 24 25 24 24 23 21 20 18 16 13 10 8 6 5 5 6 5 4 3 3 2 2 5 7 7 8 9 12 14 14 14 16 18 20 22 23 24 26 24 21 21
7 7 8 9 11 12 12 13 14 16 17 16 14 14 14 13 12 12 12 12 13 14 14 14 12 11 10 10 10 9 8 8 8 9 11 12 13 14 15 16 17 18 20 22 24 25 26 26 25 23 21 19 17 13 10 8 6 5 7 7 7 6 5 4 3 3 4 5 6 7 8 9 12 13 14 15 17 19 21 22 22 22 22 20 19
6 7 7 8 10 11 11 12 14 15 15 14 12 11 11 10 8 7 6 5 4 3 3 3 3 3 4 4 5 5 5 5 6 7 7 8 8 10 11 14 16 17 19 21 22 23 25 26 26 24 22 19 16 12 9 7 6 7 8 8 8 6 6 5 5 5 6 6 7 8 8 9 11 13 13 14 17 19 21 23 24 23 22 22 24
7 7 6 5 5 6 6 7 8 9 9 9 9 9 9 8 7 6 5 4 3 3 2 2 1 1 2 3 3 4 5 6 6 5 5 5 5 6 7 9 11 13 15 17 19 21 22 24 26 25 22 18 15 11 9 8 8 8 8 8 7 7 7 7 7 7 8 8 9 9 10 10 12 13 15 15 17 19 21 23 25 25 26 26 27
4 4 4 3 3 4 4 3 4 6 7 8 8 8 8 6 5 4 2 2 2 2 3 3 2 2 2 3 4 5 6 6 6 4 4 5 5 6 7 9 11 11 13 14 16 18 20 22 24 23 21 18 14 11 9 9 9 9 8 8 8 9 9 9 9 9 10 10 11 11 11 12 14 15 17 18 19 20 21 22 23 24 26 26 27
1 2 4 4 4 4 3 3 5 7 7 7 6 6 5 4 3 2 1 1 2 3 3 4 4 4 5 5 5 6 6 7 6 6 6 6 7 7 7 8 9 9 10 11 12 14 16 18 19 20 18 15 12 10 9 9 9 9 9 10 10 10 10 10 9 10 10 11 12 12 13 15 16 17 18 19 19 18 18 18 19 20 20 20 22
3 1 1 3 4 5 5 5 6 7 8 7 6 5 4 3 3 2 1 2 4 5 5 6 7 7 8 8 8 8 8 8 8 8 8 7 7 7 7 6 5 5 5 6 7 9 11 13 15 16 14 12 11 11 10 10 10 11 11 11 11 10 9 8 9 10 11 12 12 14 15 16 17 17 16 16 15 14 14 15 15 16 17 16 15
3 4 4 2 1 2 5 6 7 8 10 9 7 6 5 5 5 4 4 6 7 8 7 8 9 11 11 11 11 11 10 11 11 9 9 9 8 7 6 4 3 4 5 7 8 10 11 12 12 11 11 10 11 11 10 10 11 11 10 10 9 9 9 9 10 11 11 13 13 14 15 14 15 15 15 14 12 11 12 15 16 17 18 16 15
7 5 3 2 3 4 3 4 6 8 10 10 9 8 7 7 6 6 6 7 7 8 7 8 10 13 15 15 14 12 11 12 13 11 9 8 7 5 4 3 5 7 9 10 11 11 11 10 9 9 9 9 9 9 8 8 8 7 7 7 8 9 10 11 12 13 14 15 15 15 15 14 15 15 14 14 12 11 12 15 16 18 20 19 19
11 10 9 7 5 6 5 4 4 5 6 7 7 7 7 6 6 7 7 7 7 7 7 7 8 11 15 16 14 13 12 12 12 11 8 7 6 5 5 6 9 11 12 12 11 10 10 9 8 7 7 7 6 6 5 5 5 5 6 7 8 9 10 11 12 13 14 14 14 15 15 14 15 15 15 15 14 13 14 14 16 18 19 21 21
15 15 14 11 10 9 8 7 6 6 5 5 5 5 4 4 5 7 8 8 8 8 8 7 7 8 11 13 12 11 11 10 10 9 7 6 7 7 8 10 11 12 13 12 11 10 9 8 7 5 4 4 4 3 3 3 4 5 6 7 7 8 9 10 10 11 11 12 12 13 13 14 15 16 17 17 17 17 17 16 15 16 18 20 22
15 15 15 14 13 12 11 11 10 9 8 7 6 4 3 2 2 3 6 9 9 8 8 7 6 6 8 9 10 9 8 7 7 7 6 7 8 9 10 11 11 12 12 12 11 10 9 8 7 6 4 3 2 2 3 4 5 5 5 5 6 7 8 8 9 10 10 12 13 14 16 17 18 18 18 18 18 18 18 17 16 17 18 20 22
16 17 18 18 17 15 14 13 12 11 9 8 7 6 4 3 3 3 4 8 9 8 8 7 6 4 4 6 7 6 6 5 6 6 7 7 9 9 9 9 10 10 10 10 10 9 8 8 6 5 3 2 3 4 5 5 5 4 4 5 6 7 8 8 9 11 13 14 16 18 19 19 19 20 19 19 19 19 19 19 19 20 21 22 23
14 15 17 18 17 16 15 14 13 13 12 11 10 8 7 6 5 5 5 8 10 10 10 8 7 5 3 3 4 5 6 6 6 7 7 8 9 9 9 10 10 9 8 9 9 9 8 6 5 3 3 3 4 4 4 3 3 4 4 5 5 6 8 9 11 12 14 16 17 18 19 19 19 20 20 20 20 21 21 22 22 23 24 24 24
12 13 15 17 18 18 17 16 15 14 13 13 12 11 9 8 8 7 8 9 11 12 12 11 10 8 6 6 6 7 8 8 9 9 9 9 9 10 10 10 9 8 8 9 8 7 6 4 3 1 1 1 1 1 1 1 1 2 2 4 5 7 8 10 11 13 14 15 17 18 19 19 20 21 22 22 23 23 24 25 25 26 26 26 25
15 14 13 13 14 16 17 16 15 14 13 13 12 11 11 10 9 9 9 8 10 12 14 13 12 11 10 9 10 11 11 12 12 12 11 11 10 9 9 9 8 7 7 7 6 5 4 3 2 3 3 3 3 2 2 2 1 2 3 5 7 8 10 11 12 13 15 16 17 19 20 21 22 23 23 24 25 25 26 27 27 27 26 26 26
16 16 16 14 12 12 13 14 14 13 12 13 13 13 12 11 10 10 10 10 10 12 13 14 15 15 14 12 13 14 14 14 15 14 13 11 11 10 8 8 7 6 6 6 5 5 6 6 6 6 5 4 3 2 2 2 3 5 6 8 9 10 11 12 13 14 16 18 19 20 22 23 24 24 25 25 25 26 26 26 26 26 25 25 26
16 16 16 16 15 13 12 12 12 11 11 11 12 12 12 12 12 12 12 11 11 11 14 16 16 16 14 14 15 17 17 17 17 16 15 14 12 11 9 7 6 5 5 6 8 9 9 9 8 7 5 4 3 3 4 5 6 7 8 9 10 11 13 14 15 17 18 20 21 22 24 24 25 25 25 24 25 25 25 24 25 25 25 25 23
15 16 16 17 16 16 14 13 12 11 11 11 11 11 12 12 13 13 12 12 12 15 16 15 13 13 14 16 17 18 19 20 19 16 14 13 11 9 8 7 6 6 6 8 10 12 11 9 7 6 4 4 5 5 6 7 7 8 9 11 13 14 15 17 18 19 20 21 22 24 24 25 25 25 24 23 23 24 23 23 24 24 24 23 22
16 16 15 15 16 16 16 16 15 14 14 13 12 12 13 14 15 15 14 15 16 17 15 12 11 13 17 18 17 15 15 18 19 17 13 12 10 8 8 7 6 7 8 10 11 11 9 7 6 5 5 5 6 6 7 8 9 11 12 13 15 17 18 19 20 20 21 22 23 23 23 23 23 24 23 23 24 24 23 23 23 22 22 21 21
19 19 17 16 14 13 14 17 18 17 16 15 14 14 14 14 15 16 16 17 16 15 14 12 10 12 15 16 16 14 12 15 19 18 14 13 11 8 8 7 7 9 10 10 10 8 6 5 5 4 4 5 6 7 8 9 11 13 15 17 18 18 19 20 21 21 22 22 22 22 22 22 22 23 23 24 24 24 24 23 22 21 21 21 21
20 22 22 20 18 14 13 14 15 16 16 16 16 17 17 15 14 13 14 16 17 16 15 13 11 10 12 13 15 13 13 16 20 18 15 14 11 9 9 9 10 11 10 8 7 7 5 4 4 4 4 5 5 6 8 9 12 14 16 18 19 20 20 21 21 21 21 21 21 21 22 22 23 23 24 24 24 24 24 23 22 22 22 22 22
23 23 23 23 22 20 16 14 13 14 16 17 18 19 20 19 17 14 12 13 14 14 14 12 10 10 12 12 12 11 14 18 20 18 16 14 12 12 13 13 12 11 9 7 6 6 5 3 3 3 3 4 5 6 8 10 12 14 16 17 19 21 22 23 23 22 22 21 21 22 23 24 24 24 25 25 24 24 24 24 23 23 22 22 22
27 26 25 24 23 23 21 18 14 13 15 19 20 20 22 22 21 19 16 14 13 13 13 13 12 11 12 13 12 12 16 21 20 18 16 15 14 15 15 13 12 10 8 6 5 4 4 3 2 2 2 4 5 7 9 11 12 14 16 18 21 22 24 25 24 24 23 23 23 24 25 25 25 25 25 25 25 24 24 24 23 22 21 21 22
29 29 28 26 25 24 23 22 20 17 17 19 21 23 23 24 23 22 21 19 18 17 16 15 14 13 13 13 14 16 19 21 19 17 16 17 17 17 15 13 11 9 7 5 4 3 3 2 2 1 3 4 5 7 9 11 13 16 18 21 23 24 25 26 25 25 25 25 26 26 26 26 26 26 25 25 24 24 24 23 23 22 22 22 22
29 29 29 28 28 26 25 24 24 22 20 20 21 23 23 23 23 23 22 21 21 20 18 17 17 16 15 16 17 20 21 20 18 18 19 19 18 16 14 12 11 9 7 6 5 4 3 2 1 2 3 4 5 7 9 11 14 17 20 22 24 25 26 26 25 26 27 27 27 27 27 26 26 26 25 24 24 24 24 24 24 24 23 23 23
27 27 27 28 27 27 27 25 25 24 22 21 21 21 21 21 21 21 19 19 21 22 22 22 21 21 21 22 22 22 21 20 20 20 19 17 14 13 12 11 10 9 8 7 6 5 4 2 1 2 2 3 4 7 10 12 15 18 21 23 24 25 25 25 25 26 26 27 27 27 26 26 26 26 25 24 24 24 24 24 24 24 24 24 23
24 24 24 24 24 25 26 25 24 23 22 21 20 19 19 19 19 18 18 19 20 21 24 26 26 25 25 24 24 23 23 22 21 19 16 13 12 12 11 11 10 9 8 7 6 5 4 2 1 2 1 3 5 8 11 14 17 19 22 24 24 24 24 24 24 25 26 26 26 26 26 26 26 26 25 24 24 24 24 24 23 23 22 22 21
22 22 21 20 21 22 23 23 23 22 21 20 18 18 19 19 19 19 20 21 21 21 23 26 27 27 26 25 25 25 24 23 21 18 15 13 12 12 12 11 10 9 8 6 5 4 3 2 2 1 1 3 6 10 12 15 17 20 23 24 24 25 25 24 24 25 25 26 26 27 26 26 26 25 25 24 24 24 24 24 23 23 22 22 21
19 20 19 18 19 20 19 18 20 21 21 20 19 20 21 21 21 21 22 24 24 23 23 25 26 27 27 26 26 26 25 23 20 18 16 14 13 12 12 11 10 8 7 5 4 3 2 2 2 2 2 5 9 11 13 15 18 21 23 24 24 25 24 24 24 25 25 26 27 27 27 27 27 26 25 25 24 24 24 24 24 23 23 22 23
14 15 16 17 18 19 17 16 17 20 20 20 21 22 22 23 23 24 23 24 23 22 22 24 26 27 27 26 26 25 23 21 19 17 15 14 13 12 11 11 9 7 5 4 3 2 2 2 2 1 4 7 10 12 14 16 19 22 23 24 24 24 24 23 24 25 26 27 28 28 28 28 27 26 26 26 25 24 24 24 24 23 22 22 22
11 13 14 16 18 19 18 17 17 19 20 20 21 21 22 23 25 25 24 24 23 22 21 22 24 25 24 23 21 19 18 17 16 15 13 12 12 12 11 10 7 5 4 3 2 1 1 2 1 3 7 9 11 13 15 17 20 22 23 23 24 23 23 23 24 26 27 28 28 28 28 28 28 27 26 26 25 24 24 23 23 22 21 21 20
12 13 15 16 18 19 20 19 19 20 20 20 19 19 20 22 25 26 26 24 22 21 20 21 22 22 21 19 17 15 13 13 13 13 13 13 13 12 11 9 6 5 4 3 1 1 1 2 2 5 8 9 11 13 15 18 20 21 22 23 23 22 22 23 24 26 28 28 29 29 28 28 27 27 27 25 24 24 23 23 22 21 20 20 19
17 17 17 18 19 19 20 21 21 21 21 21 21 21 21 22 25 27 26 22 18 18 19 20 21 20 18 16 14 12 11 12 13 14 14 14 14 12 10 8 7 6 4 2 1 2 3 2 3 6 7 9 10 12 15 17 18 19 21 22 22 21 21 22 24 26 27 28 28 28 28 28 27 27 26 25 24 23 22 21 21 21 20 19 18
24 24 24 23 22 22 22 23 24 24 24 24 24 23 22 21 22 22 20 18 16 17 18 18 18 17 15 13 12 12 12 14 15 15 14 14 12 10 9 8 7 6 4 2 2 3 3 3 5 6 7 9 11 13 15 17 17 18 19 20 20 20 21 22 23 25 26 26 27 27 27 27 26 26 25 24 23 22 21 21 21 20 19 18 17
28 28 28 27 26 26 25 25 25 25 24 24 23 21 19 18 17 17 17 17 17 17 17 16 15 14 13 13 13 15 16 17 16 15 13 12 10 9 8 7 7 6 4 3 4 4 3 4 6 7 8 11 12 14 15 16 17 18 18 18 18 19 20 21 22 23 24 25 25 26 26 26 25 25 24 23 22 21 20 20 20 19 18 16 15
29 29 28 28 27 27 26 25 24 24 23 22 21 19 18 17 17 17 17 16 16 15 15 14 14 13 13 14 16 18 18 17 15 14 12 10 9 8 7 7 7 7 5 4 5 4 3 4 6 7 9 11 13 14 15 17 18 18 18 18 17 18 19 21 21 22 23 24 25 25 25 25 24 23 22 21 21 21 20 20 19 18 17 15 15
26 27 26 26 25 24 23 22 21 21 20 19 19 18 18 18 18 18 18 17 16 15 15 15 15 15 16 17 18 18 17 16 14 12 11 9 8 8 8 8 8 7 6 6 5 3 3 5 6 8 10 12 12 13 16 18 19 18 18 18 17 17 19 20 20 20 22 24 24 24 23 23 22 21 21 21 20 20 19 19 18 17 16 15 14
22 23 23 23 22 22 21 20 20 19 19 19 19 19 19 19 19 19 19 18 18 17 17 17 17 17 18 18 18 17 16 14 13 11 9 7 7 7 8 8 8 7 7 6 5 3 3 5 6 8 10 11 12 13 15 17 19 19 19 19 18 18 19 20 20 20 21 23 24 23 23 22 22 20 20 20 20 19 19 18 17 16 15 14 12
22 22 22 22 22 21 21 20 21 20 20 20 20 20 20 20 20 20 20 19 19 18 18 18 18 18 18 17 16 15 13 12 10 8 7 6 6 6 7 7 8 7 7 6 4 3 4 5 7 8 10 11 12 13 14 16 18 19 20 19 19 19 19 20 20 20 22 23 24 24 23 23 22 21 20 20 20 19 18 18 16 15 14 13 11
21 22 22 22 22 21 21 21 21 21 21 21 21 21 21 21 21 20 20 20 19 18 18 18 17 17 16 15 14 12 11 9 8 7 5 5 5 7 7 8 8 7 6 6 5 4 5 6 7 8 9 11 12 12 13 15 17 19 19 19 19 18 18 19 19 21 22 23 23 24 24 24 23 22 21 20 20 19 18 17 16 15 13 12 10
Wind_Direction
199 196 192 191 200 210 211 209 206 198 192 198 206 213 218 221 222 223 223 218 215 212 209 208 205 200 196 197 201 203 204 202 200 200 198 192 187 182 178 174 171 163 164 168 163 159 146 121 116 102 76 69 73 67 66 66 63 64 59 48 47 42 33 42 54 51 26 11 6 5 3 5 8 6 4 4 6 8 9 9 11 14 18 22 21
199 199 198 199 206 214 215 212 207 201 194 195 206 217 223 225 227 228 229 226 222 218 214 210 207 203 199 200 205 210 213 212 207 206 206 205 202 200 202 198 191 184 180 180 176 178 179 150 139 124 87 72 78 79 70 70 60 52 49 38 32 30 22 21 25 27 16 8 3 359 360 6 7 3 1 359 356 353 353 354 357 360 1 3 5
199 196 196 200 206 212 214 212 208 203 199 197 204 218 227 231 232 232 232 231 228 225 223 218 212 207 204 205 210 216 221 221 219 217 215 213 211 211 217 219 217 212 201 196 197 199 201 200 189 165 121 68 69 80 83 73 53 43 43 32 25 25 18 12 13 12 7 4 2 360 0 3 5 1 356 353 350 346 346 346 344 343 343 344 346
190 184 188 195 201 204 206 206 204 203 201 201 206 219 231 237 237 236 237 236 233 231 230 227 222 218 215 216 219 223 226 227 228 227 225 225 223 222 224 225 229 231 225 218 217 215 214 220 224 219 231 263 274 26 36 38 31 31 30 24 21 19 13 9 9 8 3 358 359 2 3 4 5 2 354 348 346 344 344 344 340 336 335 336 336
182 176 179 184 188 196 201 202 201 199 199 202 208 221 235 242 241 239 241 239 236 238 246 250 244 234 230 231 230 233 234 236 239 239 237 236 235 235 235 233 235 238 237 235 233 232 231 231 231 227 232 240 236 239 265 304 337 357 7 11 12 7 4 3 3 4 4 3 360 357 358 1 3 2 358 353 348 344 342 341 339 337 334 333 333
178 175 179 180 182 192 199 198 195 195 196 199 205 215 227 235 235 233 235 236 235 235 244 255 253 244 241 240 240 242 242 244 246 247 247 246 245 245 243 242 241 241 242 241 239 240 240 240 243 237 234 235 231 230 236 250 282 312 334 348 353 353 352 356 360 2 7 10 5 358 357 359 359 0 1 360 355 350 346 340 337 338 337 335 334
178 179 186 190 189 195 201 198 191 190 196 202 209 217 224 228 228 228 230 235 238 238 240 242 243 244 245 245 245 246 246 248 252 252 254 255 254 253 250 249 247 243 244 244 241 242 241 241 245 245 243 241 238 237 237 240 261 280 297 322 337 342 343 347 352 359 8 11 7 1 358 358 358 358 358 360 359 357 355 348 340 339 341 340 337
178 183 189 191 193 203 212 209 199 194 198 207 216 222 227 231 233 233 235 237 238 239 239 238 240 247 253 251 249 250 249 249 253 256 260 262 262 260 258 255 252 247 245 245 244 243 242 241 243 246 246 242 238 240 238 237 248 251 260 307 332 339 344 347 352 3 9 9 6 2 357 355 356 354 353 358 358 355 356 352 342 338 339 338 337
174 180 188 191 195 207 212 207 201 202 209 216 220 219 221 230 236 239 242 244 241 237 237 244 251 256 256 252 248 248 249 250 253 259 264 265 265 265 262 258 254 251 249 248 246 244 242 242 242 243 243 239 235 234 229 229 237 238 246 289 325 336 342 345 352 3 8 6 4 359 353 353 355 352 351 355 354 346 344 344 339 337 335 333 333
194 192 198 202 203 207 207 202 201 207 214 222 225 222 223 229 235 240 245 248 248 240 235 242 254 257 255 255 254 254 256 260 263 266 266 266 266 265 263 261 257 254 252 250 249 247 244 243 243 242 239 235 230 227 223 224 228 238 262 289 307 320 321 312 321 343 357 360 358 354 349 346 347 348 345 343 341 335 335 337 335 333 334 333 330
210 209 211 207 198 192 196 203 209 213 217 222 225 224 225 228 232 239 243 244 243 234 226 231 243 249 252 257 258 259 263 267 270 269 266 266 266 264 262 261 259 256 255 252 251 250 247 243 240 238 233 227 223 219 218 218 224 246 280 297 304 309 304 280 269 306 336 342 341 341 337 331 333 337 334 331 331 330 330 331 329 329 332 332 324
179 183 188 189 187 184 184 191 197 202 206 211 214 217 220 224 229 234 234 232 232 227 222 227 237 244 252 259 261 265 272 282 284 279 275 271 269 266 262 259 259 258 258 256 255 254 249 243 237 233 228 221 213 208 208 214 230 262 286 297 303 309 310 297 280 286 305 313 315 319 320 319 323 326 325 324 324 324 324 324 323 324 322 317 310
160 163 165 170 179 183 185 190 193 196 200 205 210 214 216 217 214 207 199 190 185 184 193 210 231 259 282 287 283 278 276 283 290 290 291 289 281 274 270 267 265 262 261 261 259 257 252 242 233 227 221 213 205 205 211 221 239 262 279 290 297 303 302 292 279 278 287 295 303 310 312 311 313 316 317 318 318 318 319 318 318 317 312 307 304
163 164 162 161 171 180 185 186 189 194 195 194 193 189 185 180 170 157 142 126 108 92 80 61 38 341 317 306 289 273 262 266 279 289 298 306 304 296 290 284 278 270 264 262 262 260 253 241 229 220 210 202 203 212 220 228 242 257 270 282 289 291 290 285 278 275 277 285 293 300 303 304 306 310 310 311 312 313 313 313 313 311 307 304 303
170 176 175 163 155 169 175 168 174 178 169 162 160 160 162 163 158 151 132 98 63 42 36 21 5 341 318 300 287 281 273 269 272 282 299 307 308 307 302 292 285 276 266 262 260 257 250 239 228 218 208 203 209 221 228 235 245 253 263 272 277 281 282 281 278 274 275 282 290 297 302 302 304 305 305 306 309 309 308 307 306 306 306 306 307
185 222 212 195 178 176 180 173 172 172 166 164 165 166 171 177 175 173 145 58 12 3 358 345 338 334 323 310 299 293 288 281 274 275 287 298 304 310 308 296 289 282 270 262 258 251 245 236 224 213 205 204 211 221 226 231 240 249 258 264 269 273 275 274 272 273 279 287 294 299 300 300 302 303 304 307 309 310 309 306 308 311 312 310 310
88 99 202 218 217 212 209 203 193 191 192 194 196 202 214 225 223 225 272 330 340 344 345 343 336 330 326 322 313 303 294 287 281 278 283 290 299 311 314 303 288 275 256 240 231 223 217 212 206 201 200 202 206 212 219 227 238 249 254 256 260 263 265 270 275 282 289 294 297 299 299 300 301 302 305 308 310 314 314 313 320 323 318 312 310
43 68 75 67 352 242 225 227 227 217 210 209 215 229 244 250 251 256 276 299 314 323 331 341 340 333 329 324 316 308 297 285 276 273 277 282 289 303 311 296 253 225 203 186 185 186 184 186 192 198 200 202 205 210 220 233 242 246 248 251 255 260 264 273 281 288 293 296 297 297 297 299 299 300 302 303 304 308 309 311 317 316 310 306 303
323 332 347 5 1 341 296 259 245 226 216 218 225 227 227 229 234 247 264 278 288 297 307 322 331 332 331 325 320 315 303 285 272 264 262 269 274 281 278 236 189 183 182 174 172 176 177 177 182 191 198 202 208 217 227 238 244 246 252 261 270 276 279 286 292 295 297 298 299 299 300 301 302 302 303 301 299 299 297 300 306 306 303 300 298
277 275 269 259 261 279 285 275 251 228 216 216 215 211 214 221 235 250 259 259 262 266 274 286 305 322 328 326 323 320 306 287 271 259 252 250 249 239 223 202 182 175 176 175 172 171 170 171 173 182 196 205 214 227 236 246 254 260 269 278 283 286 288 293 297 299 300 301 302 304 305 307 307 306 306 303 300 298 294 292 296 299 300 299 296
251 247 246 241 236 241 247 249 250 249 239 224 213 210 218 233 246 252 246 241 240 242 246 260 286 315 329 328 324 319 306 287 269 256 243 229 223 218 208 199 191 184 179 177 177 175 171 170 164 160 171 183 193 215 235 251 266 274 281 285 286 286 290 295 297 299 302 303 304 305 305 306 306 305 304 302 301 301 297 290 287 291 295 298 297
263 256 254 253 250 246 246 248 250 251 247 237 225 214 209 220 260 264 243 234 231 229 237 254 279 311 331 330 322 313 300 279 259 246 230 213 211 214 210 203 198 194 185 175 172 171 167 164 159 154 160 175 195 232 266 282 287 290 290 287 286 291 297 302 304 305 307 308 309 309 309 309 309 307 305 303 302 302 297 290 286 287 289 292 293
273 264 260 257 253 250 248 244 240 236 232 227 221 216 215 231 275 292 252 237 233 234 241 251 263 289 323 324 310 297 281 258 236 224 218 211 207 209 211 206 201 202 195 182 173 170 166 163 165 173 193 234 275 291 302 301 290 284 282 282 288 298 303 306 307 308 310 311 312 312 313 314 314 312 311 309 308 305 300 295 292 291 291 291 289
278 264 258 253 248 246 242 236 232 230 228 226 224 223 229 245 268 279 262 247 242 242 242 243 245 254 271 280 271 254 235 224 214 206 205 206 204 202 202 198 195 199 197 183 174 171 167 168 178 205 247 285 304 307 307 294 277 277 284 291 299 307 310 312 314 315 315 315 315 314 314 314 313 311 311 310 307 305 301 297 295 295 295 293 290
295 278 264 252 245 242 241 239 235 229 225 225 227 230 237 248 264 275 270 257 249 244 240 236 234 231 224 218 218 214 207 202 196 188 185 188 187 185 186 184 184 189 184 166 158 158 159 167 184 208 269 321 349 355 1 6 325 316 314 313 315 317 318 319 319 319 318 317 316 313 311 310 308 305 304 302 300 298 296 295 294 295 295 294 293
296 292 282 265 247 236 232 232 232 229 227 228 231 235 242 250 260 265 263 260 254 247 241 234 228 223 216 207 200 196 193 190 185 179 177 178 176 173 173 168 162 162 157 146 145 151 152 151 148 131 112 98 93 83 69 57 22 341 325 322 321 322 323 323 322 321 319 317 315 312 310 309 307 305 303 301 298 296 295 295 296 296 297 298 297
284 285 284 280 270 250 233 225 222 225 231 234 236 239 242 247 249 247 249 255 254 248 244 238 229 220 209 198 193 192 189 186 183 180 180 180 177 172 170 162 150 144 141 139 143 147 143 136 130 123 114 104 90 63 33 5 340 331 328 328 330 330 330 329 325 322 320 318 315 313 312 312 310 308 306 304 302 299 296 297 298 298 299 300 296
277 276 276 277 276 270 259 243 230 226 230 233 233 232 232 236 237 239 246 252 255 259 257 246 233 221 211 202 193 188 187 189 190 190 188 185 178 171 166 160 153 149 146 145 143 141 139 134 125 116 104 81 51 22 6 355 347 343 340 339 338 336 333 330 326 322 321 319 317 315 315 314 311 309 308 306 304 302 300 300 299 298 299 298 292
275 271 269 269 269 268 267 263 253 243 236 232 230 230 231 232 233 236 244 250 257 265 262 248 232 226 227 221 205 192 192 196 197 194 189 185 182 178 171 164 161 156 149 149 147 143 137 129 115 100 79 51 31 18 8 359 352 349 347 344 341 338 335 332 329 326 324 321 318 316 314 312 311 310 310 307 304 303 303 302 299 298 298 294 286
275 274 271 269 265 262 262 262 259 251 242 236 233 234 235 234 233 235 240 247 254 255 248 237 233 234 233 225 212 207 210 205 194 185 178 175 175 174 168 164 164 157 150 150 148 141 132 119 101 82 61 41 28 18 9 0 354 352 349 345 342 339 335 333 332 330 326 322 317 314 312 310 309 309 308 305 303 304 304 301 297 295 293 287 282
267 270 272 272 268 263 259 259 258 252 243 235 228 225 225 227 229 231 234 238 238 229 219 221 235 240 234 221 210 210 213 200 186 178 171 169 169 166 162 160 156 152 151 151 146 135 123 110 95 76 53 40 28 16 8 2 356 352 346 341 340 339 336 334 333 330 325 322 319 315 312 310 307 306 304 302 301 301 300 298 295 291 287 282 280
259 260 264 267 269 269 266 265 263 253 240 229 221 216 213 211 213 219 224 223 216 209 211 217 221 222 223 219 212 206 195 185 180 175 169 169 168 162 158 157 152 149 152 154 144 130 117 103 95 80 51 37 27 13 6 0 353 348 345 341 340 341 339 337 335 331 327 323 319 315 312 309 306 303 301 299 297 295 294 293 291 288 285 282 279
257 254 254 256 259 262 264 270 272 256 238 226 218 213 210 207 204 202 203 204 203 203 207 209 206 206 210 213 216 208 188 177 175 172 168 168 166 160 158 156 151 152 157 156 142 131 121 102 93 82 50 30 19 9 2 355 348 346 345 342 340 340 339 338 336 333 329 324 318 313 310 308 304 301 298 296 293 290 289 288 287 286 284 281 279
256 253 251 250 252 254 256 262 269 263 245 231 221 216 215 214 209 198 188 182 183 189 195 196 198 203 204 203 206 197 180 171 169 167 166 165 162 160 158 154 152 157 163 159 144 134 128 117 105 83 38 17 10 1 354 351 348 347 344 341 338 337 337 337 335 333 329 324 317 312 309 305 301 298 295 293 291 288 286 285 285 283 281 279 279
252 249 248 247 246 248 251 254 257 261 256 242 229 221 218 215 209 202 196 189 180 177 180 183 185 190 195 194 188 178 170 166 164 164 165 163 160 158 155 153 154 160 166 164 156 147 144 147 132 67 12 3 2 357 352 351 350 346 342 338 336 335 336 336 334 332 328 322 316 311 307 303 300 297 294 291 290 287 286 285 285 284 282 281 281
248 245 242 241 241 242 246 248 249 251 255 252 240 228 220 214 207 202 198 191 180 172 169 169 171 174 177 175 171 168 166 164 162 162 162 162 160 160 162 164 167 172 177 176 174 175 182 183 143 13 355 356 1 356 351 350 346 342 340 338 336 335 335 335 334 330 325 319 314 310 307 303 301 300 297 294 291 290 288 288 286 285 283 282 280
242 239 237 236 236 235 237 240 242 243 248 250 242 228 216 209 203 196 187 181 176 170 165 162 161 160 159 161 164 165 163 161 160 159 160 163 167 172 176 177 179 183 185 184 187 196 200 200 295 339 341 356 359 351 345 342 340 340 340 339 337 335 335 334 333 329 323 316 312 310 308 306 305 304 301 297 294 293 291 289 288 285 283 282 280
234 231 232 233 232 230 229 231 233 235 236 236 230 217 206 198 192 187 181 175 171 165 160 158 158 156 155 157 162 162 159 157 157 157 159 166 173 175 176 178 179 182 183 183 190 198 203 224 284 305 328 344 342 339 337 337 338 339 340 338 336 336 336 334 332 328 321 315 313 313 312 310 309 308 305 299 295 294 293 291 289 287 285 284 281
229 224 225 229 228 225 224 224 222 219 216 214 209 200 193 186 182 180 176 169 163 159 156 155 156 158 157 156 158 158 157 156 156 156 158 165 171 173 176 178 179 179 179 182 188 194 209 261 271 253 292 323 328 332 333 334 337 338 338 336 335 336 336 333 329 326 322 318 318 319 318 315 313 312 308 303 299 298 297 295 293 290 287 285 283
219 212 212 217 218 215 213 210 206 199 195 194 192 187 184 181 178 174 168 161 158 159 158 156 156 159 160 159 160 161 160 159 159 160 161 166 172 177 180 182 182 180 179 181 186 196 238 271 237 224 299 322 327 331 333 334 335 336 336 336 336 335 335 332 330 327 325 323 322 322 321 319 318 316 313 310 308 305 303 300 298 294 290 287 285
197 193 198 205 205 200 194 190 188 184 181 182 181 179 178 176 172 166 160 155 155 157 157 156 157 160 161 162 163 163 163 162 164 167 170 175 180 181 182 185 185 181 178 182 190 220 267 238 210 262 324 328 329 331 333 334 334 334 335 336 336 335 335 336 335 332 329 327 326 325 324 324 323 320 317 315 314 313 309 306 303 299 295 291 289
166 173 183 189 188 184 178 175 173 169 167 169 170 170 169 167 163 158 152 151 153 154 153 153 156 158 158 159 161 164 167 170 175 181 187 190 190 185 181 180 178 171 171 178 186 253 245 199 217 325 331 330 331 335 335 334 334 335 336 336 336 337 338 338 338 337 334 331 330 329 329 328 326 323 321 320 319 317 315 312 310 306 302 298 294
141 153 160 165 168 166 162 159 156 154 156 158 155 154 155 155 152 148 146 146 150 151 149 149 152 154 155 158 162 169 180 190 195 197 194 188 180 174 170 167 163 161 166 168 135 108 177 193 316 334 332 331 334 335 334 333 335 336 336 335 337 339 340 339 340 339 337 335 334 334 333 331 328 326 325 324 324 322 321 318 317 316 312 307 302
111 119 127 134 139 140 140 141 141 141 143 142 140 142 145 145 142 141 142 145 149 149 148 149 153 156 159 164 172 181 189 192 189 183 175 169 165 163 162 164 166 167 168 159 130 155 185 235 313 329 331 331 332 332 333 335 337 338 336 336 337 339 341 341 341 341 340 339 338 338 336 332 330 328 327 328 328 327 326 326 327 325 322 318 312
94 99 103 106 109 113 117 122 125 128 130 131 131 133 136 136 135 138 142 145 146 147 149 153 157 161 163 167 172 174 172 169 165 163 161 161 161 161 163 169 172 173 168 157 165 186 210 280 318 328 329 330 333 336 337 339 342 341 339 338 339 341 342 343 342 342 343 342 341 340 337 334 332 330 330 332 334 333 332 335 336 333 329 326 323
86 90 93 96 98 101 105 110 114 117 119 121 123 126 130 135 140 144 145 145 146 148 151 155 160 164 165 165 166 165 162 159 158 159 160 161 161 163 171 178 180 179 179 183 196 209 246 307 321 324 327 333 339 342 343 344 345 344 342 342 342 342 341 341 341 342 343 343 343 343 340 337 334 334 336 338 341 341 342 344 345 342 339 337 339
85 87 90 93 95 97 100 105 108 111 112 115 119 125 132 138 141 141 141 142 145 148 151 156 159 162 163 161 160 159 157 156 158 158 158 159 161 166 177 187 188 188 197 209 215 230 283 316 316 318 329 338 343 346 347 349 349 347 346 347 347 344 342 341 341 341 342 343 345 346 345 341 340 341 343 344 346 348 350 351 351 351 351 351 354
87 89 91 94 95 97 99 102 105 108 112 116 121 125 128 130 131 131 132 135 139 142 147 150 151 153 153 153 152 153 153 154 155 155 155 159 167 175 185 191 192 196 207 219 228 252 303 313 310 320 334 342 346 348 351 352 352 350 351 352 351 348 346 344 343 342 344 347 350 351 350 349 348 348 349 350 351 354 357 357 356 357 359 360 3
90 92 94 95 96 97 100 103 106 109 114 119 121 122 122 123 124 125 128 130 132 136 140 142 143 145 146 146 146 148 150 150 150 150 152 158 171 183 190 192 194 201 212 222 234 265 300 303 310 327 341 346 347 350 353 356 357 356 355 354 352 349 347 347 347 346 348 351 355 357 357 356 357 357 357 357 359 1 2 2 1 1 2 4 7
96 97 98 99 100 101 104 107 108 111 115 119 119 117 117 118 119 121 124 126 127 129 132 136 138 141 143 144 145 147 148 147 147 148 152 162 177 185 187 189 196 205 214 221 231 259 285 295 310 332 346 349 349 349 353 359 3 2 359 356 353 350 348 348 351 352 353 354 358 2 2 2 3 5 5 6 6 6 7 8 7 6 6 8 10
97 98 99 99 101 104 106 107 108 109 113 116 116 115 115 115 115 118 121 123 124 125 128 132 135 138 140 142 144 145 145 144 142 141 146 165 180 185 187 192 199 208 214 221 231 255 278 292 311 335 347 349 349 350 354 0 5 5 2 359 355 352 350 351 353 356 357 357 360 3 5 6 7 9 10 11 11 10 10 13 15 14 13 13 15